User: anonymous   Login
Location: ???????
(54.9567°N, 38.2836°E)
Time: 23:19:43
(UTC+00:00)
Language:

GP-B - Orbit

View from above orbital plane
View from above orbital plane
View from above satellite
View from above satellite

Ground track
Ground track

The orbit data is extracted from the following two-line orbital elements,

1 28230U 04014A   24168.73170596  .00001253  00000-0  16039-3 0  9996
2 28230  89.8295  65.1332 0003117  75.7775 284.3795 14.80853861544148
Epoch (UTC): 16 June 2024 17:33:39
Eccentricity: 0.0003117
inclination: 89.8295°
perigee height: 624 km
apogee height: 629 km
right ascension of ascending node: 65.1332°
argument of perigee: 75.7775°
revolutions per day: 14.80853861
mean anomaly at epoch: 284.3795°
orbit number at epoch: 54414

The dashed part of the orbit path shows where the satellite is in the earth's shadow,  

DLR